Location: Claremont
(33.9858°S, 18.4575°E)
Time: 04:17:20
(UTC+00:00)

Lacrosse 5 - Pass Details

Date: 03 March 2021
Orbit: 718 x 721 km, 57.0° (Epoch: 02 April)

Event Time Altitude Azimuth Distance (km) Brightness Sun altitude
Rises 18:36:20 0° 236° (SW) 3,153 6.8 -16.2°
Reaches altitude 10° 18:39:17 10° 252° (WSW) 2,224 5.7 -16.8°
Maximum altitude 18:42:58 20° 298° (WNW) 1,629 4.2 -17.5°
Drops below altitude 10° 18:46:38 10° 345° (NNW) 2,204 4.3 -18.2°
Enters shadow 18:49:13 - 360° (N) 3,001 4.9 -18.7°
